Location: Burland Observatory
(39.4088°N, 105.4217°W)
Time: 11:16:54
(UTC-06:00)

OTV 5 (USA 277) - Visible Passes

Search period start: 20 October 2019 00:00
Search period end: 30 October 2019 00:00
Orbit: 310 x 324 km, 54.5° (Epoch: 17 October)

Date Brightness Start Highest point End Pass type
(mag) Time Alt. Az. Time Alt. Az. Time Alt. Az.
20 Oct ? 05:08:43 16° ENE 05:08:43 16° ENE 05:09:40 10° E visible
20 Oct ? 06:39:38 11° WNW 06:41:48 24° SW 06:44:04 10° S visible
21 Oct ? 05:23:30 25° ESE 05:23:30 25° ESE 05:24:50 10° ESE visible
22 Oct ? 05:38:26 18° SSE 05:38:26 18° SSE 05:39:18 10° SSE visible
26 Oct ? 19:42:53 10° SSW 19:43:54 19° S 19:43:54 19° S visible
27 Oct ? 19:57:14 10° SW 19:58:38 26° WSW 19:58:38 26° WSW visible
28 Oct ? 18:38:11 10° S 18:40:19 21° SE 18:42:19 11° E visible
28 Oct ? 20:12:18 10° W 20:13:13 16° WNW 20:13:13 16° WNW visible
29 Oct ? 18:52:03 10° SW 18:54:44 69° SE 18:56:47 16° NE visible
